Weather in Solovetsky

Russia / Arkhangel'skaya Oblast'     65°01′36″N   35°42′32″E
temp.,
°C
wind,
m/s
gust,
m/s
humid.,
%
clouds,
%
prec.,
mm/h
press.,
hPa
HPBL,
m
17 may, mon
mon1700:00+3ne56935 0.0 101152
03:00+3ne129538 0.0 101218
06:00+3sw029554 0.0 101315
09:00+3sw12955 0.0 101412
12:00+4sw229111 0.0 101612
15:00+5se22885 0.0 101624
18:00+5e55945 0.0 101546
21:00+6ese5591100 0.0 101527
18 may, tue
tue1800:00+6sse7891100 0.0 101550
03:00+5sse7997100 0.0 101453
06:00+6se91391100 0.0 101379
09:00+6se10188898 0.0 1012119
12:00+8se11198594 0.3 1010116
15:00+8sse101585100 0.3 100874
18:00+8sse81183100 0.0 100757
21:00+8sse7780100 0.0 100634
19 may, wed
wed1900:00+8s81185100 0.1 100645
03:00+7s668928 0.2 100720
06:00+6sse6695100 0.0 100733
09:00+6sse7810099 0.0 100841
12:00+6sse77100100 0.0 100738
15:00+8sse88826 0.0 100637
18:00+9sse88740 0.0 100432
21:00+9ssw558132 0.1 100626
20 may, thu
thu2000:00+8se55100100 1.0 100614
03:00+7se81197100 1.5 100551
06:00+7s9139461 0.0 100578
09:00+7s77955 0.0 100642
12:00+7s66917 0.0 100623
15:00+8ssw348736 0.0 100710
18:00+8s228824 0.0 100610
21:00+8n22913 0.0 100610
21 may, fri
fri2100:00+8wnw3391100 0.2 100710
03:00+6nw339090 0.2 100610
06:00+5nw5593100 0.0 100626
09:00+5nnw559375 0.0 100633
12:00+5nne4493100 0.3 100630
15:00+4nne7119542 3.8 1005114
18:00+4nne6109399 0.2 100499
21:00+4n569894 0.4 100256